Location: *
(50.5685°N, 4.6424°W)
Time: 21:38:13
(UTC+00:00)

Daily predictions for brighter satellites

Satellite Brightness Start Highest point End
(mag) Time Altitude Azimuth Time Altitude Azimuth Time Altitude Azimuth
Cosmos 1238 Rocket 4.2 20:52:49 10° S 20:59:21 63° E 21:05:46 10° NNE
Timation 1 Rocket 4.5 20:54:50 10° NNW 21:00:52 83° WSW 21:06:50 10° SSE
Landsat 7 4.4 20:58:27 10° SE 21:02:58 45° ENE 21:07:31 10° N
ISS -2.5 21:02:43 10° SSW 21:05:22 22° SE 21:08:03 10° E
Cosmos 1328 Rocket 3.6 21:01:36 10° N 21:06:02 80° E 21:10:23 10° SSE
Cosmos 2360 Rocket 3.0 21:01:11 10° SSE 21:06:03 31° ESE 21:10:55 10° NE
Lacrosse 5 3.2 21:01:27 10° WNW 21:06:16 41° N 21:11:03 10° ENE
Cosmos 1072 Rocket 4.5 21:04:29 10° S 21:10:36 79° E 21:16:44 10° NNE
Cosmos 1980 Rocket 3.4 21:05:20 10° SW 21:10:45 47° NW 21:16:11 10° NNE
Cosmos 2084 Rocket 4.4 21:10:27 10° NW 21:14:39 41° NE 21:18:46 10° ESE
Cosmos 1408 3.5 21:12:18 10° SSE 21:15:37 31° E 21:18:57 10° NNE
Cosmos 1606 4.0 21:12:46 10° NNE 21:15:59 25° ENE 21:19:10 10° SE
H-2A R/B 3.7 21:11:15 10° SSW 21:16:10 34° W 21:21:03 10° NNW
SWARM A 4.4 21:17:13 10° SSE 21:20:30 57° E 21:23:48 10° N
Cosmos 1500 Rocket 4.2 21:16:28 10° SSE 21:20:36 38° E 21:24:45 10° NNE
Aureole 1 Rocket 4.0 21:15:57 10° SSW 21:21:01 80° WNW 21:27:50 10° NNE
Cosmos 1340 Rocket 4.5 21:18:03 10° NNW 21:21:45 34° W 21:25:27 10° SSW
Cosmos 1933 3.8 21:20:26 10° N 21:24:23 48° ENE 21:28:09 11° SSE
CZ-2C R/B 2.7 21:19:18 10° NNE 21:24:28 56° E 21:29:33 10° S
Nadezhda 4 Rocket 4.1 21:18:13 10° N 21:24:35 78° E 21:30:50 10° SSE
Terra 2.4 21:27:45 11° SE 21:32:06 44° ENE 21:36:38 10° N
Cosmos 2151 3.6 21:28:59 10° SSW 21:33:12 61° WNW 21:37:30 10° N
Cosmos 2034 Rocket 4.0 21:27:12 10° S 21:33:26 78° E 21:39:46 10° NNE
Iridium 4 Rocket 4.2 21:27:32 10° N 21:33:26 68° W 21:39:11 10° S
Cosmos 407 Rocket 4.1 21:28:39 10° S 21:33:30 38° ESE 21:38:26 10° NE
DMSP B5D2-2 4.4 21:28:49 10° N 21:34:01 72° WNW 21:39:12 10° SSW
USA 81 4.4 21:29:08 10° N 21:34:17 50° ENE 21:39:02 12° SSE
Thor Agena Rocket 3.8 21:29:29 10° NNE 21:34:23 49° E 21:39:16 10° S
Cosmos 44 4.4 21:29:29 10° WSW 21:34:35 52° NW 21:39:26 10° NE
Cosmos 2322 Rocket 2.3 21:30:31 10° SSW 21:36:14 88° WNW 21:41:59 10° NNE
Cosmos 2219 Rocket 3.6 21:33:10 11° SE 21:36:37 19° E 21:40:28 10° ENE
USA 229 DEB 4.1 21:32:07 10° S 21:38:06 38° ESE 21:44:20 10° NE
USA 229 4.1 21:32:14 10° S 21:38:12 38° ESE 21:44:26 10° NE
Cosmos 44 Rocket 3.3 21:33:24 10° SSW 21:38:29 70° SE 21:43:30 10° NE
Cosmos 1825 2.6 21:35:30 11° SSE 21:38:59 43° E 21:42:36 10° NNE
BREEZE-M DEB (TANK) 1.4 21:37:31 10° WSW 21:39:34 59° SSE 21:43:09 10° E
Meteor 2-3 Rocket 4.4 21:34:35 10° SSE 21:39:56 40° E 21:45:20 10° NNE
Cosmos 2251 Rocket 4.4 21:34:52 10° SW 21:40:00 54° WNW 21:45:09 10° NNE
NOSS 5 (C) 4.5 21:36:32 10° SSW 21:40:18 54° SE 21:43:22 10° NE
Cosmos 2278 Rocket 3.6 21:36:03 10° NNW 21:40:57 29° NE 21:45:50 10° ESE
Meteor 1-26 Rocket 4.4 21:35:26 10° N 21:41:04 58° ENE 21:45:56 13° SSE
BREEZE-M DEB (TANK) 2.1 21:38:48 10° WSW 21:41:18 39° SSE 21:43:23 10° E
ATLAS 5 CENTAUR R/B 4.4 21:37:24 10° NW 21:41:18 21° N 21:45:36 10° ENE
SL-16 R/B 2.5 21:36:34 10° SW 21:42:14 74° WNW 21:47:57 10° NNE
ERS-1 Rocket 3.0 21:37:39 10° SSE 21:42:42 83° WSW 21:47:47 10° NNW
Cosmos 1092 Rocket 4.1 21:36:33 10° N 21:42:50 71° ENE 21:48:39 12° SSE
Cosmos 2333 Rocket 3.5 21:39:40 12° SE 21:43:08 21° E 21:47:16 10° NE
Cosmos 614 Rocket 4.4 21:40:09 10° S 21:44:50 40° ESE 21:49:35 10° NE
Gbstr 26 Del rocket 2.5 21:42:27 10° WSW 21:46:23 79° SSE 21:50:07 10° ENE
ADEOS Rocket 3.6 21:41:22 10° N 21:46:55 54° WNW 21:52:14 10° SW
Cosmos 1743 Rocket 3.5 21:43:22 10° S 21:47:44 78° E 21:52:06 10° NNE
IGS 5A 3.5 21:44:07 11° SSE 21:48:05 83° W 21:52:17 10° NNW
EO 1 Del DPAF 3.3 21:44:35 10° NNE 21:48:25 83° WNW 21:52:12 10° SSW
Cosmos 1607 4.1 21:42:53 10° NW 21:49:04 73° NE 21:54:31 14° SE
Tiangong 2 3.5 21:49:57 10° SW 21:50:34 10° SSW 21:51:11 10° S
Cosmos 1515 Rocket 4.2 21:49:32 10° NNW 21:53:48 53° W 21:58:01 10° S
Cosmos 2322 4.1 21:49:16 10° S 21:54:36 45° ESE 21:59:58 10° NE
Cosmos 1844 Rocket 2.7 21:49:27 10° NNW 21:55:11 89° WSW 21:59:54 15° SSE
Cosmos 2263 Rocket 4.1 21:54:55 10° NW 21:59:15 23° WSW 22:03:34 10° SSW
NOSS 2 (F) 4.5 21:56:49 10° NW 21:59:51 89° SSW 22:01:42 21° SE
USA 215 3.7 21:55:20 10° ENE 22:01:51 69° NNW 22:08:21 10° WSW
SPOT 1/Viking Rocket 4.1 22:01:07 10° S 22:06:11 56° W 22:11:19 10° NNW
Cosmos 1634 Rocket 4.1 22:02:18 12° S 22:08:10 65° E 22:14:20 10° NNE
Lacrosse 5 rocket 2.9 22:04:09 10° WNW 22:08:33 41° NNE 22:12:52 10° E
Cosmos 1805 Rocket 3.7 22:09:39 17° SSE 22:12:49 54° E 22:17:05 10° NNE
Landsat 4 3.7 22:10:27 10° NNE 22:14:09 63° ESE 22:16:49 18° S
IRAS Rocket 4.4 22:11:40 18° SSE 22:15:57 71° ENE 22:21:34 10° NNW
Cosmos 2026 Rocket 3.9 22:09:58 10° N 22:16:06 85° E 22:21:00 17° S
Cosmos 2237 4.2 22:11:13 10° SSW 22:16:55 84° ESE 22:22:38 10° NNE
Cosmos 1356 Rocket 4.3 22:14:17 10° NNW 22:18:26 48° W 22:22:01 13° SSW
Cosmos 1655 Rocket 4.4 22:13:04 10° N 22:19:11 52° ENE 22:23:37 19° SE
SPOT 5 3.5 22:14:58 13° S 22:19:27 53° W 22:24:12 10° NNW
Cosmos 2228 Rocket 4.1 22:15:18 10° NNW 22:19:36 43° W 22:23:50 10° SSW
Cosmos 1818 3.6 22:15:15 10° NW 22:20:46 85° SW 22:24:37 20° SE
SL-8 R/B 4.2 22:18:59 10° W 22:23:28 41° SSW 22:26:05 22° SE
Cosmos 1782 2.9 22:19:26 10° N 22:23:29 67° E 22:25:49 24° SSE
Mayak -0.1 22:22:17 10° NE 22:25:58 28° E 22:27:39 21° SE
SL-4 R/B 2.7 22:21:42 10° SW 22:26:15 41° SSE 22:30:43 10° ENE
Cosmos 1666 Rocket 3.9 22:30:46 23° SSE 22:33:17 50° E 22:37:38 10° NNE
Cosmos 1862 4.5 22:33:05 22° SE 22:34:33 28° E 22:38:00 10° NNE
Cosmos 1844 4.0 22:29:37 10° NW 22:35:07 58° WSW 22:38:56 20° S
COSMOS 2428 2.9 22:30:50 16° S 22:35:16 52° ESE 22:40:49 10° NE
Cosmos 1633 Rocket 3.5 22:33:25 24° SSE 22:35:34 43° E 22:39:42 10° NNE
ALOS 2 4.2 22:33:16 14° ESE 22:36:00 25° ENE 22:39:36 10° N
ATLAS CENTAUR R/B 2.4 22:31:32 10° NW 22:36:14 47° NE 22:39:44 15° ESE
Helios 1B rocket 4.2 22:35:45 10° NE 22:38:39 18° E 22:39:43 17° ESE
ISS -3.9 22:38:23 10° WSW 22:41:43 78° SSE 22:45:04 10° ENE
ASTEX 1 3.4 22:36:51 10° N 22:41:53 89° E 22:45:28 20° S
GP-B 4.3 22:39:24 10° NNE 22:43:18 29° E 22:45:15 21° ESE
Meteor 2-6 Rocket 4.2 22:38:15 10° N 22:43:42 76° ENE 22:47:10 24° SSE
Cosmos 1862 Rocket 4.0 22:42:05 10° N 22:46:20 50° ENE 22:48:29 26° SE
Cosmos 1867 4.4 22:44:54 24° SSE 22:47:04 32° ESE 22:51:54 10° NE
Cosmos 1023 Rocket 4.5 22:42:22 10° SSW 22:47:32 85° WNW 22:52:48 10° NNE
Cosmos 2360 Rocket 2.9 22:44:17 10° SW 22:49:48 54° NW 22:55:21 10° NNE
SL-19 R/B 3.6 22:46:28 10° NNE 22:49:49 73° ESE 22:50:52 37° S
Lacrosse 5 2.7 22:45:03 10° WNW 22:50:00 50° NNE 22:54:57 10° E
Cosmos 676 Rocket 3.9 22:45:38 14° SSW 22:50:14 85° ESE 22:55:33 10° NNE
NOSS 3-1 (C) 3.3 22:45:04 10° SW 22:50:43 78° SE 22:57:20 10° NE
Cosmos 1606 4.3 22:48:25 10° NNW 22:51:43 29° W 22:54:15 14° SW
Cosmos 2237 Rocket 3.2 22:49:41 23° SE 22:51:50 29° ESE 22:56:38 10° NE
Cosmos 1470 Rocket 4.3 22:51:23 26° SE 22:53:05 37° E 22:57:08 10° NNE
COSMOS 2455 4.3 22:51:59 17° ESE 22:53:28 18° ESE 22:57:25 10° ENE
Cosmos 2084 Rocket 4.2 22:50:05 10° NW 22:54:10 40° SW 22:55:59 26° S
Sich 1 3.0 22:51:30 22° SSW 22:54:16 81° W 22:58:34 10° N
Akebono 4.1 22:52:56 10° NNW 22:55:10 90° W 22:55:42 53° SSE
Cosmos 1741 Rocket 4.5 22:57:18 26° SSE 22:59:40 42° ESE 23:04:35 10° NE
Cosmos 1633 3.1 22:59:07 33° SE 23:00:03 40° E 23:03:26 10° NNE
MOS 1 Rocket 3.7 22:56:10 10° N 23:00:33 59° WNW 23:04:24 14° SSW
Cosmos 1954 Rocket 4.1 23:00:11 13° SSW 23:04:48 81° WNW 23:10:08 10° NNE
Cosmos 2266 Rocket 4.1 23:00:02 10° N 23:06:27 72° ENE 23:10:16 25° SSE
Terra 3.4 23:06:38 13° SSW 23:10:01 27° W 23:14:05 10° NW
Cosmos 1850 Rocket 4.2 23:07:43 27° S 23:10:26 54° ESE 23:15:40 10° NNE
Cosmos 1140 Rocket 4.1 23:08:15 10° SW 23:13:20 56° WNW 23:18:30 10° NNE
Meteor 1-27 Rocket 3.8 23:10:08 10° N 23:16:02 79° ENE 23:19:24 27° SSE
Cosmos 2297 4.5 23:13:37 10° NNW 23:19:03 46° NE 23:23:14 17° ESE
Cosmos 540 Rocket 4.4 23:14:56 10° NNW 23:19:47 40° ENE 23:23:07 18° ESE
Cosmos 2219 Rocket 2.2 23:14:49 13° SSW 23:19:52 83° WNW 23:25:35 10° NNE
Cosmos 2279 Rocket 4.3 23:15:43 17° SSW 23:20:36 65° WNW 23:26:48 10° N
Spot 4 4.1 23:20:16 28° S 23:22:40 61° WSW 23:27:25 10° NNW
ARGOS Delta rocket 3.6 23:22:00 33° SSE 23:23:58 90° WSW 23:28:35 10° NNW
Cosmos 2278 Rocket 2.3 23:19:54 10° NNW 23:25:33 69° WSW 23:28:27 29° S
Cosmos 2333 Rocket 2.3 23:21:37 13° SW 23:26:48 77° WNW 23:32:31 10° NNE
Cosmos 1943 Rocket 4.2 23:22:40 10° NNW 23:26:55 22° NE 23:31:09 10° E
ATLAS 5 CENTAUR R/B 3.5 23:22:15 10° NW 23:27:21 39° NNE 23:33:08 10° E
USA 229 DEB 4.1 23:22:07 10° WSW 23:28:44 64° NW 23:35:43 10° NE
USA 229 4.1 23:22:13 10° WSW 23:28:51 65° NW 23:35:50 10° NE
NOSS 3-1 (A) 3.4 23:25:59 10° SW 23:31:41 89° NW 23:38:24 10° NE
Helios 1A 3.7 23:31:28 28° SSW 23:33:10 43° W 23:37:10 10° NNW
Gbstr 26 Del rocket 2.8 23:29:27 10° W 23:33:13 73° N 23:37:03 10° E
SeaSat 1 2.8 23:31:52 10° NE 23:36:40 48° ESE 23:38:30 33° SSE
Cosmos 841 Rocket 3.6 23:31:52 10° NNW 23:37:02 68° ENE 23:39:43 28° SE
Meteor 1-29 3.3 23:38:28 10° NNE 23:41:50 49° E 23:42:19 45° SE
NOSS 2-3 (E) 3.7 23:40:33 28° SSW 23:42:59 72° SE 23:48:24 10° NE
Cosmos 1763 Rocket 3.5 23:39:15 10° NNW 23:44:25 70° WSW 23:46:44 33° S
USA 215 4.2 23:38:10 10° ENE 23:44:27 51° N 23:50:45 10° WNW
CZ-4 R/B 4.5 23:40:09 10° NNE 23:44:35 40° E 23:46:10 31° SE
NOSS 2-3 (D) 3.7 23:43:27 29° SSW 23:45:47 72° SE 23:51:11 10° NE
Cosmos 468 Rocket 4.4 23:41:51 10° NNW 23:46:58 52° WSW 23:49:15 30° SSW
Lacrosse 5 rocket 1.5 23:43:34 10° WNW 23:48:12 89° SSW 23:50:38 27° SE
Cosmos 2369 Rocket 3.9 23:46:22 10° NNW 23:51:20 29° NE 23:56:15 10° ESE
